User: anonymous   Login
Location: Unspecified
(0.0000°N, 0.0000°E)
Time: 07:19:20
(UTC+00:00)
Language:

Hamsat - Orbit

View from above orbital plane
View from above orbital plane
View from above satellite
View from above satellite

Ground track
Ground track

The orbit data is extracted from the following two-line orbital elements,

1 28650U 05017B   18267.89511364 +.00000253 +00000-0 +32572-4 0  9998
2 28650 097.7103 233.3201 0024379 036.0741 324.2116 14.88992756725248
Epoch (UTC): 24 September 2018 21:28:57
Eccentricity: 0.0024379
inclination: 97.7103°
perigee height: 584 km
apogee height: 618 km
right ascension of ascending node: 233.3201°
argument of perigee: 36.0741°
revolutions per day: 14.88992756
mean anomaly at epoch: 324.2116°
orbit number at epoch: 72524

The dashed part of the orbit path shows where the satellite is in the earth's shadow,  

DLR